Date String (YYYY-MM-DD hh:mm:ss) UTC,Instrument flags,Ambient pressure (hPa),Sample flow (lpm),Bypass flow (lpm),Sample temperature (°C),Ambient temperature (°C),ASC tube jacket temperature (°C),LED temperature (°C),Box temperature (°C),Sample RH (%),Span deviation,Mass concentration (μg/m³),Mass concentration (μg/m³),Mass concentration (μg/m³)
DateTimeUTC,F1_M11,P_M11,Q1_M11,Q2_M11,T1_M11,T2_M11,T3_M11,T4_M11,T5_M11,U1_M11,ZSPAN_M11,X0_M11,X2_M11,X1_M11
2021-11-07 10:00:00,,0823.3,5.00,0.00,29.0,28.3,00.0,38.1,30.8,06.1,0000.0,0003.51,0001.25,0000.99
2021-11-07 10:01:00,,0823.4,5.01,0.00,29.0,28.3,00.0,38.1,30.8,06.1,0000.0,0003.48,0001.24,0000.99
2021-11-07 10:02:00,,0823.4,5.01,0.00,29.0,28.3,00.0,38.1,30.8,06.0,0000.0,0003.45,0001.22,0000.97
2021-11-07 10:03:00,,0823.4,4.99,0.00,29.0,28.3,00.0,38.1,30.8,06.0,0000.0,0002.21,0001.23,0000.96
2021-11-07 10:04:00,,0823.3,5.00,0.00,29.0,28.2,00.0,38.1,30.7,06.0,0000.0,0002.26,0001.25,0000.96
2021-11-07 10:05:00,,0823.4,5.00,0.00,29.0,28.2,00.0,38.1,30.7,06.0,0000.0,0002.36,0001.24,0000.95
2021-11-07 10:06:00,,0823.4,5.00,0.00,29.0,28.2,00.0,38.1,30.7,06.0,0000.0,0002.36,0001.25,0000.94
2021-11-07 10:07:00,,0823.4,5.01,0.00,29.0,28.2,00.0,38.1,30.8,06.0,0000.0,0002.30,0001.24,0000.94
2021-11-07 10:08:00,,0823.4,4.99,0.00,29.0,28.3,00.0,38.1,30.8,06.0,0000.0,0002.37,0001.27,0000.95
2021-11-07 10:09:00,,0823.4,5.01,0.00,29.0,28.3,00.0,38.1,30.8,06.0,0000.0,0002.26,0001.27,0000.96
2021-11-07 10:10:00,,0823.4,4.99,0.00,29.1,28.3,00.0,38.1,30.8,06.0,0000.0,0002.18,0001.25,0000.96
2021-11-07 10:11:00,,0823.3,5.01,0.00,29.1,28.4,00.0,38.1,30.9,06.0,0000.0,0002.21,0001.26,0000.96
2021-11-07 10:12:00,,0823.4,5.01,0.00,29.1,28.4,00.0,38.1,30.9,06.0,0000.0,0002.36,0001.23,0000.96
2021-11-07 10:13:00,,0823.4,5.01,0.00,29.1,28.4,00.0,38.1,30.9,06.0,0000.0,0003.11,0001.26,0000.96
2021-11-07 10:14:00,,0823.3,4.99,0.00,29.1,28.4,00.0,38.1,30.9,06.0,0000.0,0003.04,0001.25,0000.97
2021-11-07 10:15:00,,0823.4,5.00,0.00,29.2,28.5,00.0,38.1,30.9,06.0,0000.0,0003.02,0001.27,0000.98
2021-11-07 10:16:00,,0823.4,5.00,0.00,29.2,28.5,00.0,38.1,30.9,06.0,0000.0,0002.96,0001.31,0000.99
2021-11-07 10:17:00,,0823.4,5.01,0.00,29.2,28.5,00.0,38.2,30.9,06.0,0000.0,0002.93,0001.30,0000.98
2021-11-07 10:18:00,,0823.4,5.00,0.00,29.2,28.5,00.0,38.2,30.9,06.0,0000.0,0002.90,0001.30,0000.99
2021-11-07 10:19:00,,0823.4,5.00,0.00,29.2,28.5,00.0,38.2,31.0,05.9,0000.0,0002.89,0001.28,0000.98
2021-11-07 10:20:00,,0823.4,4.99,0.00,29.2,28.5,00.0,38.2,31.0,05.9,0000.0,0002.81,0001.25,0000.97
2021-11-07 10:21:00,,0823.5,5.00,0.00,29.2,28.5,00.0,38.2,31.0,06.0,0000.0,0002.81,0001.25,0000.96
2021-11-07 10:22:00,,0823.5,4.99,0.00,29.2,28.5,00.0,38.2,31.0,06.0,0000.0,0003.63,0001.27,0000.96
2021-11-07 10:23:00,,0823.4,5.01,0.00,29.3,28.5,00.0,38.2,31.0,06.0,0000.0,0004.65,0001.29,0000.97
2021-11-07 10:24:00,,0823.4,5.00,0.00,29.3,28.5,00.0,38.2,31.0,06.0,0000.0,0003.98,0001.29,0000.98
2021-11-07 10:25:00,,0823.4,5.00,0.00,29.3,28.5,00.0,38.2,31.0,06.0,0000.0,0004.09,0001.29,0000.98
2021-11-07 10:26:00,,0823.4,5.00,0.00,29.3,28.5,00.0,38.2,31.0,06.0,0000.0,0004.28,0001.31,0000.97
2021-11-07 10:27:00,,0823.5,5.00,0.00,29.3,28.5,00.0,38.3,31.0,06.0,0000.0,0004.29,0001.31,0000.97
2021-11-07 10:28:00,,0823.5,5.00,0.00,29.3,28.5,00.0,38.3,31.0,06.0,0000.0,0004.21,0001.28,0000.97
2021-11-07 10:29:00,,0823.4,5.00,0.00,29.3,28.5,00.0,38.3,31.0,06.0,0000.0,0004.18,0001.28,0000.98
2021-11-07 10:30:00,,0823.6,4.99,0.00,29.3,28.5,00.0,38.3,31.0,06.0,0000.0,0004.23,0001.30,0000.98
2021-11-07 10:31:00,,0823.6,5.00,0.00,29.3,28.5,00.0,38.3,31.0,06.0,0000.0,0004.92,0001.36,0001.00
2021-11-07 10:32:00,,0823.7,5.01,0.00,29.3,28.5,00.0,38.3,31.0,06.0,0000.0,0005.00,0001.40,0001.02
2021-11-07 10:33:00,,0823.7,5.00,0.00,29.3,28.5,00.0,38.3,31.0,06.1,0000.0,0004.54,0001.42,0001.01
2021-11-07 10:34:00,,0823.6,5.00,0.00,29.3,28.5,00.0,38.3,31.0,06.0,0000.0,0003.71,0001.45,0001.02
2021-11-07 10:35:00,,0823.7,5.00,0.00,29.3,28.5,00.0,38.3,31.0,06.1,0000.0,0003.49,0001.47,0001.02
2021-11-07 10:36:00,,0823.7,5.00,0.00,29.3,28.4,00.0,38.3,31.0,06.1,0000.0,0003.55,0001.46,0001.03
2021-11-07 10:37:00,,0823.7,4.99,0.00,29.2,28.4,00.0,38.3,31.0,06.0,0000.0,0004.43,0001.45,0001.05
2021-11-07 10:38:00,,0823.6,5.01,0.00,29.2,28.4,00.0,38.3,30.9,06.0,0000.0,0004.69,0001.44,0001.05
2021-11-07 10:39:00,,0823.6,5.00,0.00,29.2,28.4,00.0,38.3,30.9,06.0,0000.0,0005.47,0001.45,0001.05
2021-11-07 10:40:00,,0823.7,5.01,0.00,29.2,28.4,00.0,38.3,30.9,06.1,0000.0,0005.70,0001.45,0001.05
2021-11-07 10:41:00,,0823.7,4.99,0.00,29.2,28.3,00.0,38.3,30.9,06.0,0000.0,0005.54,0001.42,0001.05
2021-11-07 10:42:00,,0823.7,5.00,0.00,29.2,28.3,00.0,38.3,30.9,06.1,0000.0,0004.92,0001.39,0001.05
2021-11-07 10:43:00,,0823.7,5.00,0.00,29.2,28.3,00.0,38.3,30.8,06.3,0000.0,0004.92,0001.38,0001.05
2021-11-07 10:44:00,,0823.7,5.00,0.00,29.2,28.3,00.0,38.3,30.8,06.3,0000.0,0004.77,0001.37,0001.06
2021-11-07 10:45:00,,0823.7,5.00,0.00,29.2,28.3,00.0,38.3,30.8,06.3,0000.0,0004.56,0001.34,0001.05
2021-11-07 10:46:00,,0823.8,4.99,0.00,29.2,28.3,00.0,38.2,30.8,06.4,0000.0,0004.49,0001.33,0001.05
2021-11-07 10:47:00,,0823.9,5.00,0.00,29.2,28.3,00.0,38.3,30.9,06.4,0000.0,0004.30,0001.34,0001.04
2021-11-07 10:48:00,,0824.0,5.01,0.00,29.2,28.3,00.0,38.3,30.9,06.2,0000.0,0004.35,0001.32,0001.03
2021-11-07 10:49:00,,0823.8,4.99,0.00,29.2,28.3,00.0,38.2,30.9,06.2,0000.0,0004.66,0001.30,0001.04
2021-11-07 10:50:00,,0823.8,5.00,0.00,29.2,28.3,00.0,38.2,30.9,06.4,0000.0,0003.95,0001.31,0001.05
2021-11-07 10:51:00,,0823.9,5.00,0.00,29.2,28.3,00.0,38.2,30.9,06.4,0000.0,0003.68,0001.31,0001.06
2021-11-07 10:52:00,,0824.0,5.00,0.00,29.2,28.4,00.0,38.2,30.9,06.4,0000.0,0003.65,0001.30,0001.06
2021-11-07 10:53:00,,0824.0,5.00,0.00,29.2,28.4,00.0,38.2,30.9,06.5,0000.0,0004.51,0001.32,0001.07
2021-11-07 10:54:00,,0824.0,5.00,0.00,29.2,28.4,00.0,38.2,30.9,06.5,0000.0,0004.49,0001.31,0001.08
2021-11-07 10:55:00,,0824.0,5.00,0.00,29.2,28.4,00.0,38.2,30.9,06.4,0000.0,0004.44,0001.30,0001.09
2021-11-07 10:56:00,,0824.0,5.00,0.00,29.2,28.4,00.0,38.3,31.0,06.5,0000.0,0004.45,0001.31,0001.10
2021-11-07 10:57:00,,0824.0,5.00,0.00,29.3,28.4,00.0,38.3,31.0,06.4,0000.0,0004.56,0001.35,0001.10
2021-11-07 10:58:00,,0823.9,4.99,0.00,29.3,28.4,00.0,38.3,31.0,06.2,0000.0,0004.63,0001.36,0001.10
2021-11-07 10:59:00,,0823.9,5.00,0.00,29.3,28.4,00.0,38.3,31.0,06.4,0000.0,0003.60,0001.35,0001.10
